AD8BW Weather Reports


time (UTC)temp
C
wind
direction
speed
KPH
gust
KPH
rain 1hr
cm
rain 24hr
cm
rain mn
cm
humidity
%
barometer
mb
20260504040246 10 173 8.0 22.5 0.00 0.00 0.00 66 1007.0
20260504035255 10 224 8.0 19.3 0.00 0.00 0.00 65 1007.1
20260504034252 10 155 11.3 29.0 0.00 0.00 0.00 65 1007.1
20260504033252 11 205 8.0 22.5 0.00 0.00 0.00 65 1007.2
20260504032300 11 171 8.0 22.5 0.00 0.00 0.00 65 1007.2
20260504031254 11 156 8.0 29.0 0.00 0.00 0.00 65 1007.3
20260504030253 11 161 8.0 22.5 0.00 0.00 0.00 64 1007.4
20260504025257 11 163 6.4 22.5 0.00 0.00 0.00 64 1007.5
20260504024256 11 197 8.0 25.7 0.00 0.00 0.00 63 1007.6
20260504023250 11 180 8.0 22.5 0.00 0.00 0.00 63 1007.6
20260504022251 11 164 8.0 22.5 0.00 0.00 0.00 63 1007.8
20260504021251 11 166 6.4 25.7 0.00 0.00 0.00 63 1007.8
20260504020248 11 135 6.4 22.5 0.00 0.00 0.00 63 1007.8
20260504015247 11 207 8.0 17.7 0.00 0.00 0.00 63 1007.8
20260504014246 11 207 6.4 14.5 0.00 0.00 0.00 62 1007.6
20260504013246 11 161 6.4 17.7 0.00 0.00 0.00 62 1007.7
20260504012248 11 248 6.4 14.5 0.00 0.00 0.00 61 1007.6
20260504011248 12 202 6.4 14.5 0.00 0.00 0.00 60 1007.7
20260504010242 12 156 6.4 22.5 0.00 0.00 0.00 59 1007.7
20260504005239 12 190 6.4 19.3 0.00 0.00 0.00 59 1007.7
20260504004241 13 188 8.0 22.5 0.00 0.00 0.00 58 1007.6
20260504003242 13 210 6.4 22.5 0.00 0.00 0.00 57 1007.5
20260504002239 13 259 6.4 22.5 0.00 0.00 0.00 55 1007.4
20260504001241 13 210 6.4 17.7 0.00 0.00 0.00 53 1007.3
20260504000241 13 238 6.4 19.3 0.00 0.00 0.00 52 1007.3
20260503235240 14 217 6.4 19.3 0.00 0.00 0.00 50 1007.2
20260503234243 14 257 6.4 22.5 0.00 0.00 0.00 50 1007.2
20260503233236 14 242 6.4 19.3 0.00 0.00 0.00 50 1007.1
20260503232235 14 126 6.4 19.3 0.00 0.00 0.00 49 1007.1
20260503231237 15 172 6.4 29.0 0.00 0.00 0.00 48 1007.2
20260503230234 15 246 6.4 19.3 0.00 0.00 0.00 47 1007.3
20260503225233 15 269 6.4 22.5 0.00 0.00 0.00 46 1007.5
20260503224233 15 240 6.4 22.5 0.00 0.00 0.00 45 1007.5
20260503223235 15 292 8.0 46.7 0.00 0.00 0.00 45 1007.5
20260503222235 15 236 11.3 43.5 0.00 0.00 0.00 45 1007.5
20260503221235 16 266 8.0 32.2 0.00 0.00 0.00 45 1007.4
20260503220229 15 343 8.0 22.5 0.00 0.00 0.00 45 1007.6
20260503215230 15 182 11.3 46.7 0.00 0.00 0.00 43 1007.5
20260503214229 16 184 8.0 29.0 0.00 0.00 0.00 42 1007.6
20260503213231 16 260 8.0 25.7 0.00 0.00 0.00 43 1007.6
20260503212228 16 261 11.3 25.7 0.00 0.00 0.00 41 1007.4
20260503211228 16 198 8.0 40.2 0.00 0.00 0.00 40 1007.5
20260503210227 16 74 8.0 22.5 0.00 0.00 0.00 42 1007.6
20260503205227 16 266 8.0 37.0 0.00 0.00 0.00 41 1007.6
20260503204228 16 168 8.0 29.0 0.00 0.00 0.00 42 1007.6
20260503203228 16 256 8.0 22.5 0.00 0.00 0.00 43 1007.8
20260503202229 16 195 6.4 17.7 0.00 0.00 0.00 42 1007.7
20260503201227 16 228 11.3 35.4 0.00 0.00 0.00 42 1007.8
20260503200228 16 244 6.4 29.0 0.00 0.00 0.00 41 1008.0
20260503195228 16 175 8.0 25.7 0.00 0.00 0.00 40 1008.0
20260503194226 16 266 8.0 25.7 0.00 0.00 0.00 39 1008.2
20260503193230 16 198 6.4 25.7 0.00 0.00 0.00 43 1008.3
20260503192232 16 275 6.4 22.5 0.00 0.00 0.00 42 1008.3
20260503191224 15 238 11.3 35.4 0.00 0.00 0.00 44 1008.6
20260503190226 15 238 8.0 19.3 0.00 0.00 0.00 45 1008.6
20260503185226 16 15 6.4 19.3 0.00 0.00 0.00 44 1008.9
20260503184227 16 147 8.0 25.7 0.00 0.00 0.00 45 1009.0
20260503183227 15 215 8.0 29.0 0.00 0.00 0.00 45 1009.1
20260503182230 14 163 8.0 25.7 0.00 0.00 0.00 45 1009.3
20260503181226 15 263 8.0 32.2 0.00 0.00 0.00 44 1009.4
20260503180229 15 253 11.3 43.5 0.00 0.00 0.00 43 1009.5
20260503175222 15 223 8.0 37.0 0.00 0.00 0.00 43 1009.5
20260503174218 15 254 8.0 32.2 0.00 0.00 0.00 43 1009.6
20260503173218 15 267 6.4 29.0 0.00 0.00 0.00 44 1009.7
20260503172222 15 262 8.0 25.7 0.00 0.00 0.00 43 1009.9
20260503171219 15 294 8.0 32.2 0.00 0.00 0.00 43 1010.1
20260503170218 14 167 8.0 25.7 0.00 0.00 0.00 44 1010.2
20260503160218 13 168 6.4 22.5 0.00 0.00 0.00 46 1011.1
20260503150211 13 154 6.4 25.7 0.00 0.00 0.00 45 1011.1
20260503140210 12 5 8.0 40.2 0.00 0.00 0.00 46 1011.4
20260503131210 10 189 3.2 14.5 0.00 0.00 0.00 51 1011.7
20260503130210 9 186 3.2 17.7 0.00 0.00 0.00 54 1011.7
20260503120206 6 134 3.2 8.0 0.00 0.00 0.00 60 1011.9
20260503110202 3 208 3.2 17.7 0.00 0.00 0.00 66 1011.9
20260503100155 0 173 0.0 0.0 0.00 0.00 0.00 79 1012.3
20260503090156 0 173 0.0 0.0 0.00 0.00 0.00 79 1012.9
20260503081152 0 173 0.0 0.0 0.00 0.00 0.00 76 1013.1
20260503080151 0 173 0.0 0.0 0.00 0.00 0.00 78 1013.1
20260503072151 1 173 0.0 0.0 0.00 0.00 0.00 79 1013.2
20260503071152 1 173 0.0 0.0 0.00 0.00 0.00 79 1013.2
20260503070152 1 173 0.0 0.0 0.00 0.00 0.00 77 1013.3
20260503060149 1 173 0.0 0.0 0.00 0.00 0.00 78 1013.7
20260503054150 1 173 0.0 0.0 0.00 0.00 0.00 79 1013.8
20260503053150 1 173 0.0 0.0 0.00 0.00 0.00 79 1013.8
20260503052149 1 173 0.0 0.0 0.00 0.00 0.00 78 1013.8
20260503051150 1 173 0.0 0.0 0.00 0.00 0.00 77 1013.9
20260503050149 2 173 0.0 0.0 0.00 0.00 0.00 75 1013.9
20260503045144 2 173 0.0 0.0 0.00 0.00 0.00 73 1013.9
20260503044141 3 173 0.0 0.0 0.00 0.00 0.00 71 1014.0
20260503043143 3 173 0.0 0.0 0.00 0.00 0.00 70 1014.0
20260503042142 3 173 0.0 0.0 0.00 0.00 0.00 70 1014.0
20260503041143 3 173 0.0 3.2 0.00 0.00 0.00 69 1014.1